紫金山第1彗星

62P/Tsuchinshan 1 (2004)

English version
Home page
Total 6,336 html files since Dec. 4, 1995
Updated on June 10, 2005

---------------------------------------------------------------------

・ プロフィール

・ 写真集

・ 軌道要素

The following orbital elements are taken from MPC 52766: 

Epoch 2004 Dec. 21.0 TT = JDT 2453360.5
T 2004 Dec. 7.9184 TT                                   MPC
q   1.489250             (2000.0)            P               Q
n   0.1487709      Peri.   22.8483      -0.4877366      -0.8540204
a   3.527421       Node    96.7684      +0.7701640      -0.5185619
e   0.577808       Incl.   10.5022      +0.4110480      -0.0417452
P   6.63
From 147 observations 1984-2004, mean residual 0".7.  Nongravitational
     parameters A1 = +0.63, A2 = -0.0064.

・ 星図

・ 光度変化

        m1 =   9.5 + 5 logΔ +  30.0 log r  [   ,-50]  (              〜2004年10月18日)
        m1 = -12.5 + 5 logΔ + 140   log r  [-50,  0]  (2004年10月18日〜2004年12月 7日)
        m1 =   6.5 + 5 logΔ +  30.0 log r  [  0,   ]  (2004年12月 7日〜               )

---------------------------------------------------------------------

軌道要素はMPCのEphemerides and Orbital Elementsに掲載されたものです。
星図は StellaNavigator Ver.2.0 for Windows (アストロアーツ 編著 / アスキー出版局刊) で作成したものです。
光度グラフはComet for Windowsで作成したものです。

---------------------------------------------------------------------

Copyright(C) 1995-2008 Seiichi Yoshida (comet@aerith.net). All rights reserved.